カタログに戻る

FENGYUN 1C DEB

運用中PO
NORAD 30515·DEBRIS·🇨🇳 China

打ち上げ May 10, 1999 から Taiyuan Satellite Launch Center

Loading…

次のパス (今後24時間)

TLE

最新Source: Space-Track

元期: Sep 14, 2026, 13:01 UTC

1 30515U 99025AJD 26257.54257875  .00000781  00000-0  43853-3 0  9996
2 30515  98.4802 105.3276 0494945  62.9546 329.6212 13.64592088970915

AllMySatでFENGYUN 1C DEBをリアルタイム追跡

Download on the App Store